Hourly Data Report for February 18, 2006

TORONTO CITY
ONTARIO

43°40'00.000" N
79°24'00.000" W
112.50 m
6158355
71508
XTO

Download Data

Hourly Data (February 2006)
Hourly Data Report for February 18, 2006
TIME
LST
Temp Definition
°C
Dew Point Definition
°C
Rel Hum Definition
%
Precip. Amount Definition
mm

Wind Dir Definition
10's deg

Wind Spd Definition
km/h
Visibility Definition
km
Stn Press Definition
kPa
Hmdx Definition


Wind Chill Definition


Weather Definition


00:00 -4.6 -11.5 58   LegendMM LegendMM   100.77     LegendNANA
01:00 -6.4 -16.7 44   LegendMM LegendMM   100.83     LegendNANA
02:00 -7.1 -16.1 49   LegendMM LegendMM   100.85     LegendNANA
03:00 -8.2 -15.2 57   LegendMM LegendMM   100.85     LegendNANA
04:00 -9.4 -12.7 77   LegendMM LegendMM   100.86     LegendNANA
05:00 -9.8 -16.5 58   LegendMM LegendMM   100.87     LegendNANA
06:00 -11.6 -15.8 71   LegendMM LegendMM   101.04     LegendNANA
07:00 -12.6 -15.3 80   LegendMM LegendMM   101.18     LegendNANA
08:00 -12.8 -21.3 49   LegendMM LegendMM   101.31     LegendNANA
09:00 -13.0 -23.2 42   LegendMM LegendMM   101.43     LegendNANA
10:00 -12.6 -21.3 48   LegendMM LegendMM   101.52     LegendNANA
11:00 -12.0 -21.1 47   LegendMM LegendMM   101.57     LegendNANA
12:00 -10.4 -19.2 48   LegendMM LegendMM   101.55     LegendNANA
13:00 -10.0 -19.6 45   LegendMM LegendMM   101.45     LegendNANA
14:00 -9.1 -23.1 31   LegendMM LegendMM   101.40     LegendNANA
15:00 -9.0 -21.0 37   LegendMM LegendMM   101.40     LegendNANA
16:00 -9.4 -20.2 41   LegendMM LegendMM   101.40     LegendNANA
17:00 -9.3 -17.4 52   LegendMM LegendMM   101.38     LegendNANA
18:00 -9.9 -17.8 52   LegendMM LegendMM   101.40     LegendNANA
19:00 -9.9 -16.8 57   LegendMM LegendMM   101.41     LegendNANA
20:00 -10.2 -17.3 56   LegendMM LegendMM   101.43     LegendNANA
21:00 -10.6 -16.3 63   LegendMM LegendMM   101.41     LegendNANA
22:00 -10.8 -16.7 62   LegendMM LegendMM   101.44     LegendNANA
23:00 -10.7 -17.0 60   LegendMM LegendMM   101.44     LegendNANA

Notes on Data Quality.

Legend

  • E = Estimated
  • M = Missing
  • NA = Not Available*
  • [empty] = Indicates an unobserved value
Date modified: